This demonstration page uses our WeatherBlox Daily Observations layout. Learn more.

Left ArrowRight Arrow

Hourly Observations for July 31, 2022

Temp ( °F °C ) Dew Point ( °F °C ) Humidity (%) Winds ( mph kmh ) Pressure ( in mb ) Visibility ( mi km ) Precip ( " mm )
12:15 am 00:15 Clear 62 16.4 59 15 91 91 S 6 9 30.03 1017 10 16 0.00 0.00
12:35 am 00:35 Clear 62 16.5 59 15 91 91 S 6 9 30.04 1017 10 16 0.00 0.00
12:55 am 00:55 Clear 61 16.3 59 15 92 92 S 7 11 30.04 1017 10 16 0.00 0.00
1:15 am 01:15 Clear 61 16.1 59 15 93 93 S 6 9 30.04 1017 10 16 0.00 0.00
1:35 am 01:35 Clear 61 15.9 59 14.8 93 93 SSE 5 7 30.03 1017 10 16 0.00 0.00
1:55 am 01:55 Clear 61 15.9 59 14.9 94 94 S 8 13 30.02 1017 10 16 0.00 0.00
2:15 am 02:15 Clear 61 16.1 59 15.2 94 94 S 6 9 30.01 1016 10 16 0.00 0.00
2:35 am 02:35 Clear 62 16.4 60 15.5 94 94 SSW 5 7 30.01 1016 10 16 0.00 0.00
2:55 am 02:55 Clear 61 16 59 15.2 95 95 SSW 3 6 30.01 1016 10 16 0.00 0.00
3:15 am 03:15 Clear 61 16.1 60 15.4 96 96 SW 3 6 30.00 1016 10 16 0.00 0.00
3:35 am 03:35 Clear 61 16.1 60 15.5 96 96 SSW 5 7 30.00 1016 10 16 0.00 0.00
3:55 am 03:55 Clear 61 16.2 60 15.6 96 96 SSW 6 9 30.00 1016 10 16 0.00 0.00
4:15 am 04:15 Clear 61 16.1 60 15.6 97 97 SSW 6 9 29.99 1016 10 16 0.00 0.00
4:35 am 04:35 Clear 61 16.1 60 15.6 97 97 SW 6 9 29.99 1016 10 16 0.00 0.00
4:55 am 04:55 Clear 62 16.5 61 15.9 96 96 SW 7 11 29.99 1015 7 11 0.00 0.00
5:15 am 05:15 Partly Cloudy 63 17 61 16.3 96 96 SSW 6 9 29.98 1015 7 11 0.00 0.00
5:35 am 05:35 Partly Cloudy 63 17.1 62 16.6 97 97 SSW 6 9 29.98 1015 7 11 0.00 0.00
5:55 am 05:55 Partly Cloudy with Mist and Fog 63 17 62 16.5 97 97 SSW 5 7 29.98 1015 5 8 0.00 0.00
6:15 am 06:15 Mostly Cloudy with Mist and Fog 63 17.1 62 16.6 97 97 SSW 5 7 29.98 1015 5 8 0.00 0.00
6:30 am 06:30 Cloudy with Mist and Fog 63 17 62 16.6 98 98 S 5 7 29.97 1015 3 5 0.00 0.00
6:55 am 06:55 Mostly Cloudy with Mist and Fog 62 16.6 61 16.2 98 98 SSW 3 6 29.97 1015 3 4 0.00 0.00
7:15 am 07:15 Partly Cloudy with Mist and Fog 63 17 62 16.7 98 98 SSW 3 6 29.96 1015 2 3 0.00 0.00
7:35 am 07:35 Sunny with Mist and Fog 64 17.6 63 17.1 97 97 SW 5 7 29.97 1015 3 5 0.00 0.00
7:55 am 07:55 Sunny with Mist and Fog 65 18.4 64 17.8 96 96 SSW 7 11 29.95 1014 3 5 0.00 0.00
8:15 am 08:15 Sunny with Mist and Fog 67 19.4 65 18.6 95 95 SSW 7 11 29.94 1014 5 8 0.00 0.00
8:35 am 08:35 Sunny 69 20.5 67 19.5 94 94 SSW 10 17 29.92 1013 7 11 0.00 0.00
8:55 am 08:55 Sunny 71 21.4 67 19.7 90 90 SW 15 24 29.93 1013 10 16 0.00 0.00
9:15 am 09:15 Sunny 72 22 68 20 88 88 SW 13 20 29.92 1013 10 16 0.00 0.00
9:35 am 09:35 Mostly Cloudy 72 22 68 20 88 88 SSW 13 20 29.92 1013 10 16 0.00 0.00
9:55 am 09:55 Cloudy 71 21.9 68 20.1 90 90 SW 13 20 29.93 1014 10 16 0.00 0.00
10:15 am 10:15 Cloudy 71 21.6 68 20 91 91 SW 14 22 29.93 1014 10 16 0.00 0.00
10:35 am 10:35 Cloudy 70 21.2 68 19.9 92 92 SSW 12 19 29.94 1014 7 11 0.00 0.00
10:55 am 10:55 Cloudy 71 21.6 68 20.1 91 91 SW 10 17 29.94 1014 7 11 0.00 0.00
11:15 am 11:15 Cloudy 72 22 68 20.2 90 90 SW 10 17 29.94 1014 10 16 0.00 0.00
11:35 am 11:35 Cloudy 72 22.3 69 20.3 89 89 SW 9 15 29.94 1014 10 16 0.00 0.00
11:55 am 11:55 Cloudy 73 22.7 69 20.4 87 87 SW 10 17 29.93 1014 10 16 0.00 0.00
12:15 pm 12:15 Cloudy 74 23.3 69 20.7 85 85 SW 12 19 29.93 1014 10 16 0.00 0.00
12:35 pm 12:35 Cloudy 75 24 70 20.9 83 83 WSW 9 15 29.92 1013 10 16 0.00 0.00
12:55 pm 12:55 Cloudy 77 24.8 70 21.3 81 81 WSW 9 15 29.92 1013 10 16 0.00 0.00
1:15 pm 13:15 Partly Cloudy 77 25.2 70 21.3 79 79 WSW 8 13 29.90 1013 10 16 0.00 0.00
1:35 pm 13:35 Sunny 79 25.9 71 21.6 77 77 SSW 5 7 29.90 1013 10 16 0.00 0.00
1:55 pm 13:55 Sunny 81 27 71 21.9 74 74 SW 7 11 29.88 1012 10 16 0.00 0.00
2:15 pm 14:15 Sunny 82 27.5 72 22 72 72 SW 5 7 29.88 1012 10 16 0.00 0.00
2:35 pm 14:35 Sunny 83 28.3 73 22.6 71 71 S 6 9 29.86 1011 10 16 0.00 0.00
2:55 pm 14:55 Sunny 83 28.6 73 22.7 70 70 SW 6 9 29.86 1011 10 16 0.00 0.00
3:15 pm 15:15 Sunny 84 29.1 72 22 66 66 SSW 3 6 29.85 1011 10 16 0.00 0.00
3:35 pm 15:35 Sunny 85 29.6 72 22.3 65 65 S 6 9 29.84 1011 10 16 0.00 0.00
3:55 pm 15:55 Sunny 86 30 72 22.4 64 64 SSW 7 11 29.84 1010 10 16 0.00 0.00
4:15 pm 16:15 Sunny 86 30.2 71 21.5 60 60 SSW 7 11 29.84 1010 10 16 0.00 0.00
4:35 pm 16:35 Sunny 87 30.7 71 21.4 58 58 SW 7 11 29.83 1010 10 16 0.00 0.00
4:55 pm 16:55 Sunny 87 30.4 71 21.5 59 59 SSW 5 7 29.83 1010 10 16 0.00 0.00
5:15 pm 17:15 Sunny 87 30.5 72 22.4 62 62 S 5 7 29.83 1010 10 16 0.00 0.00
5:35 pm 17:35 Sunny 86 30.2 73 22.7 64 64 S 5 7 29.83 1010 10 16 0.00 0.00
5:55 pm 17:55 Sunny 86 30.2 74 23.6 68 68 S 3 6 29.83 1010 10 16 0.00 0.00
6:15 pm 18:15 Sunny 86 30.1 73 23 66 66 SSE 5 7 29.82 1010 10 16 0.00 0.00
6:35 pm 18:35 Sunny 85 29.6 74 23.5 70 70 SSE 6 9 29.83 1010 10 16 0.00 0.00
6:55 pm 18:55 Sunny 83 28.5 74 23.5 74 74 SSE 6 9 29.83 1010 10 16 0.00 0.00
7:15 pm 19:15 Sunny 83 28.6 74 23.4 74 74 SSE 5 7 29.83 1010 10 16 0.00 0.00
7:35 pm 19:35 Sunny 84 28.7 75 23.8 75 75 SSE 3 6 29.83 1010 10 16 0.00 0.00
7:55 pm 19:55 Sunny 82 27.8 75 24.1 80 80 S 5 7 29.84 1011 10 16 0.00 0.00
8:15 pm 20:15 Sunny 79 26.1 75 23.8 87 87 S 7 11 29.86 1011 10 16 0.00 0.00
8:35 pm 20:35 Sunny 78 25.6 73 22.7 84 84 S 6 9 29.86 1011 10 16 0.00 0.00
8:55 pm 20:55 Clear 77 24.8 73 22.5 87 87 S 6 9 29.87 1011 10 16 0.00 0.00
9:15 pm 21:15 Clear 76 24.5 72 22.3 88 88 S 7 11 29.88 1012 10 16 0.00 0.00
9:35 pm 21:35 Clear 75 24.1 72 22 88 88 S 7 11 29.88 1012 10 16 0.00 0.00
9:55 pm 21:55 Clear 75 23.7 71 21.8 89 89 S 7 11 29.89 1012 10 16 0.00 0.00
10:15 pm 22:15 Clear 74 23.5 71 21.6 89 89 S 8 13 29.89 1012 10 16 0.00 0.00
10:35 pm 22:35 Clear 74 23.5 71 21.5 89 89 S 7 11 29.89 1012 10 16 0.00 0.00
10:55 pm 22:55 Clear 75 23.7 70 21.3 86 86 S 7 11 29.89 1012 10 16 0.00 0.00
11:15 pm 23:15 Clear 75 23.7 70 21 85 85 SSW 6 9 29.89 1012 10 16 0.00 0.00
11:35 pm 23:35 Clear 74 23.6 69 20.8 84 84 SW 6 9 29.89 1012 10 16 0.00 0.00
11:55 pm 23:55 Clear 74 23.3 69 20.5 84 84 SW 7 11 29.89 1012 10 16 0.00 0.00

Powered by AerisWeather